| time (UTC) | temp F | wind direction | speed knots | gust knots | rain 1hr in | rain 24hr in | rain mn in | humidity % | barometer mb |
| 20260503211435 | 61 | 214 | 4.3 | 7.0 | 0.00 | 0.00 | 0.00 | 42 | 1009.2 |
| 20260503210931 | 61 | 236 | 5.2 | 7.8 | 0.00 | 0.00 | 0.00 | 39 | 1009.1 |
| 20260503210428 | 61 | 239 | 2.6 | 4.3 | 0.00 | 0.00 | 0.00 | 40 | 1009.2 |
| 20260503205928 | 61 | 230 | 2.6 | 5.2 | 0.00 | 0.00 | 0.00 | 40 | 1009.5 |
| 20260503205425 | 60 | 225 | 1.7 | 1.7 | 0.00 | 0.00 | 0.00 | 42 | 1009.5 |
| 20260503204921 | 60 | 210 | 0.9 | 0.9 | 0.00 | 0.00 | 0.00 | 42 | 1009.4 |
| 20260503204419 | 60 | 234 | 2.6 | 5.2 | 0.00 | 0.00 | 0.00 | 42 | 1009.4 |
| 20260503203916 | 60 | 201 | 3.5 | 4.3 | 0.00 | 0.00 | 0.00 | 42 | 1009.6 |
| 20260503203413 | 61 | 166 | 6.1 | 8.7 | 0.00 | 0.00 | 0.00 | 41 | 1009.4 |
| 20260503202910 | 61 | 230 | 2.6 | 4.3 | 0.00 | 0.00 | 0.00 | 42 | 1009.7 |
| 20260503202408 | 62 | 181 | 5.2 | 7.8 | 0.00 | 0.00 | 0.00 | 40 | 1009.5 |
| 20260503201906 | 61 | 196 | 1.7 | 1.7 | 0.00 | 0.00 | 0.00 | 41 | 1009.5 |
| 20260503201403 | 62 | 316 | 7.0 | 8.7 | 0.00 | 0.00 | 0.00 | 39 | 1009.4 |
| 20260503200900 | 63 | 291 | 1.7 | 2.6 | 0.00 | 0.00 | 0.00 | 38 | 1009.4 |
| 20260503200356 | 63 | 212 | 6.1 | 13.9 | 0.00 | 0.00 | 0.00 | 37 | 1009.6 |
| 20260503195854 | 62 | 268 | 3.5 | 5.2 | 0.00 | 0.00 | 0.00 | 38 | 1009.7 |
| 20260503195350 | 61 | 219 | 3.5 | 5.2 | 0.00 | 0.00 | 0.00 | 40 | 1009.7 |
| 20260503194847 | 62 | 220 | 3.5 | 4.3 | 0.00 | 0.00 | 0.00 | 38 | 1009.6 |
| 20260503194343 | 61 | 193 | 2.6 | 4.3 | 0.00 | 0.00 | 0.00 | 40 | 1009.8 |
| 20260503193839 | 60 | 219 | 5.2 | 7.8 | 0.00 | 0.00 | 0.00 | 40 | 1010.1 |
| 20260503193335 | 61 | 228 | 6.1 | 8.7 | 0.00 | 0.00 | 0.00 | 40 | 1010.1 |
| 20260503192831 | 62 | 224 | 2.6 | 2.6 | 0.00 | 0.00 | 0.00 | 40 | 1010.1 |
| 20260503192327 | 62 | 209 | 0.9 | 1.7 | 0.00 | 0.00 | 0.00 | 40 | 1010.3 |
| 20260503191823 | 61 | 222 | 4.3 | 5.2 | 0.00 | 0.00 | 0.00 | 40 | 1010.3 |
| 20260503191321 | 61 | 222 | 11.3 | 13.0 | 0.00 | 0.00 | 0.00 | 38 | 1010.3 |
| 20260503190818 | 64 | 207 | 1.7 | 2.6 | 0.00 | 0.00 | 0.00 | 40 | 1010.5 |
| 20260503190315 | 62 | 197 | 2.6 | 4.3 | 0.00 | 0.00 | 0.00 | 42 | 1010.5 |
| 20260503185812 | 62 | 317 | 2.6 | 4.3 | 0.00 | 0.00 | 0.00 | 41 | 1010.7 |
| 20260503185308 | 63 | 285 | 6.1 | 7.8 | 0.00 | 0.00 | 0.00 | 38 | 1010.8 |
| 20260503184807 | 62 | 111 | 3.5 | 4.3 | 0.00 | 0.00 | 0.00 | 40 | 1010.6 |
| 20260503184304 | 62 | 262 | 2.6 | 4.3 | 0.00 | 0.00 | 0.00 | 41 | 1011.1 |
| 20260503183800 | 63 | 239 | 1.7 | 1.7 | 0.00 | 0.00 | 0.00 | 39 | 1010.7 |
| 20260503183258 | 63 | 221 | 4.3 | 7.0 | 0.00 | 0.00 | 0.00 | 39 | 1010.9 |
| 20260503182755 | 63 | 199 | 7.0 | 11.3 | 0.00 | 0.00 | 0.00 | 38 | 1011.0 |
| 20260503182254 | 62 | 193 | 5.2 | 6.1 | 0.00 | 0.00 | 0.00 | 41 | 1010.9 |
| 20260503181750 | 62 | 232 | 4.3 | 7.0 | 0.00 | 0.00 | 0.00 | 42 | 1011.0 |
| 20260503181247 | 62 | 226 | 12.2 | 15.6 | 0.00 | 0.00 | 0.00 | 38 | 1011.2 |
| 20260503180743 | 61 | 226 | 2.6 | 5.2 | 0.00 | 0.00 | 0.00 | 41 | 1011.1 |
| 20260503180242 | 62 | 217 | 3.5 | 6.1 | 0.00 | 0.00 | 0.00 | 41 | 1011.2 |
| 20260503175738 | 63 | 222 | 1.7 | 1.7 | 0.00 | 0.00 | 0.00 | 42 | 1010.9 |
| 20260503175236 | 63 | 114 | 0.9 | 1.7 | 0.00 | 0.00 | 0.00 | 38 | 1011.4 |
| 20260503174732 | 62 | 236 | 4.3 | 5.2 | 0.00 | 0.00 | 0.00 | 42 | 1011.3 |
| 20260503174230 | 62 | 205 | 7.8 | 9.6 | 0.00 | 0.00 | 0.00 | 41 | 1011.6 |
| 20260503173730 | 62 | 168 | 2.6 | 7.8 | 0.00 | 0.00 | 0.00 | 42 | 1011.8 |
| 20260503173226 | 62 | 183 | 4.3 | 6.1 | 0.00 | 0.00 | 0.00 | 42 | 1011.4 |
| 20260503172724 | 61 | 272 | 2.6 | 4.3 | 0.00 | 0.00 | 0.00 | 46 | 1011.6 |
| 20260503172220 | 61 | 211 | 6.1 | 9.6 | 0.00 | 0.00 | 0.00 | 42 | 1011.8 |
| 20260503171717 | 62 | 191 | 0.9 | 1.7 | 0.00 | 0.00 | 0.00 | 44 | 1011.8 |
| 20260503171214 | 61 | 245 | 2.6 | 5.2 | 0.00 | 0.00 | 0.00 | 45 | 1011.8 |
| 20260503170711 | 62 | 225 | 4.3 | 7.0 | 0.00 | 0.00 | 0.00 | 43 | 1011.6 |
| 20260503170208 | 62 | 226 | 1.7 | 1.7 | 0.00 | 0.00 | 0.00 | 44 | 1012.1 |
| 20260503160130 | 59 | 230 | 2.6 | 6.1 | 0.00 | 0.00 | 0.00 | 46 | 1012.6 |
| 20260503150600 | 55 | 231 | 7.0 | 8.7 | 0.00 | 0.00 | 0.00 | 46 | 1013.1 |
| 20260503130949 | 46 | 212 | 5.2 | 7.0 | 0.00 | 0.00 | 0.00 | 55 | 1013.9 |
| 20260503130447 | 46 | 176 | 1.7 | 1.7 | 0.00 | 0.00 | 0.00 | 60 | 1013.8 |
| 20260503110343 | 37 | 215 | 0.0 | 0.9 | 0.00 | 0.00 | 0.00 | 80 | 1014.2 |
| 20260503090235 | 36 | 221 | 1.7 | 2.6 | 0.00 | 0.00 | 0.00 | 86 | 1013.6 |
| 20260503081208 | 36 | 213 | 0.9 | 0.9 | 0.00 | 0.00 | 0.00 | 87 | 1013.7 |
| 20260503080703 | 36 | 203 | 0.9 | 1.7 | 0.00 | 0.00 | 0.00 | 88 | 1013.6 |
| 20260503080200 | 37 | 213 | 0.9 | 0.9 | 0.00 | 0.00 | 0.00 | 87 | 1013.6 |
| 20260503072637 | 37 | 216 | 0.0 | 0.0 | 0.00 | 0.00 | 0.00 | 87 | 1013.5 |
| 20260503072134 | 37 | 216 | 0.0 | 0.0 | 0.00 | 0.00 | 0.00 | 87 | 1013.5 |
| 20260503071631 | 37 | 230 | 2.6 | 2.6 | 0.00 | 0.00 | 0.00 | 87 | 1013.5 |
| 20260503071128 | 37 | 203 | 1.7 | 1.7 | 0.00 | 0.00 | 0.00 | 87 | 1013.3 |
| 20260503070625 | 37 | 214 | 0.0 | 0.9 | 0.00 | 0.00 | 0.00 | 88 | 1013.5 |
| 20260503070123 | 37 | 214 | 0.0 | 0.0 | 0.00 | 0.00 | 0.00 | 87 | 1013.6 |
| 20260503055043 | 37 | 203 | 0.9 | 0.9 | 0.00 | 0.00 | 0.00 | 89 | 1013.6 |
| 20260503054539 | 37 | 204 | 0.9 | 0.9 | 0.00 | 0.00 | 0.00 | 89 | 1013.7 |
| 20260503054037 | 37 | 204 | 0.9 | 0.9 | 0.00 | 0.00 | 0.00 | 89 | 1013.7 |
| 20260503053535 | 37 | 209 | 0.0 | 0.9 | 0.00 | 0.00 | 0.00 | 89 | 1013.8 |
| 20260503053032 | 37 | 209 | 0.0 | 0.9 | 0.00 | 0.00 | 0.00 | 89 | 1013.6 |
| 20260503052529 | 37 | 209 | 0.0 | 0.9 | 0.00 | 0.00 | 0.00 | 89 | 1013.7 |
| 20260503052025 | 37 | 211 | 0.9 | 0.9 | 0.00 | 0.00 | 0.00 | 89 | 1013.6 |
| 20260503051521 | 37 | 211 | 0.9 | 0.9 | 0.00 | 0.00 | 0.00 | 89 | 1013.8 |
| 20260503051019 | 37 | 212 | 0.0 | 0.0 | 0.00 | 0.00 | 0.00 | 89 | 1013.7 |
| 20260503050514 | 37 | 211 | 0.9 | 0.9 | 0.00 | 0.00 | 0.00 | 88 | 1013.7 |
| 20260503050012 | 37 | 211 | 0.9 | 0.9 | 0.00 | 0.00 | 0.00 | 87 | 1013.7 |
| 20260503045509 | 37 | 212 | 0.0 | 0.9 | 0.00 | 0.00 | 0.00 | 87 | 1013.7 |
| 20260503045006 | 38 | 211 | 0.0 | 0.9 | 0.00 | 0.00 | 0.00 | 86 | 1013.8 |
| 20260503044502 | 38 | 211 | 0.9 | 0.9 | 0.00 | 0.00 | 0.00 | 86 | 1013.7 |
| 20260503044000 | 38 | 211 | 0.0 | 0.9 | 0.00 | 0.00 | 0.00 | 86 | 1013.7 |
| 20260503043456 | 38 | 211 | 0.9 | 0.9 | 0.00 | 0.00 | 0.00 | 85 | 1013.8 |
| 20260503042953 | 39 | 211 | 0.0 | 0.9 | 0.00 | 0.00 | 0.00 | 85 | 1013.7 |
| 20260503042450 | 39 | 211 | 0.9 | 0.9 | 0.00 | 0.00 | 0.00 | 85 | 1013.6 |
| 20260503041946 | 39 | 212 | 0.0 | 0.9 | 0.00 | 0.00 | 0.00 | 84 | 1013.7 |
| 20260503041443 | 39 | 212 | 0.0 | 0.0 | 0.00 | 0.00 | 0.00 | 83 | 1013.8 |
| 20260503040941 | 39 | 215 | 0.9 | 0.9 | 0.00 | 0.00 | 0.00 | 83 | 1013.7 |
| 20260503040438 | 40 | 207 | 0.0 | 0.0 | 0.00 | 0.00 | 0.00 | 82 | 1013.5 |
| 20260503035935 | 40 | 209 | 0.9 | 0.9 | 0.00 | 0.31 | 0.31 | 80 | 1013.7 |
| 20260503035431 | 40 | 217 | 0.9 | 0.9 | 0.00 | 0.31 | 0.31 | 80 | 1013.8 |
| 20260503034929 | 41 | 217 | 0.0 | 0.0 | 0.00 | 0.31 | 0.31 | 79 | 1013.9 |
| 20260503034427 | 41 | 205 | 0.0 | 0.9 | 0.00 | 0.31 | 0.31 | 78 | 1013.6 |
| 20260503033923 | 41 | 217 | 1.7 | 1.7 | 0.00 | 0.31 | 0.31 | 77 | 1013.8 |
| 20260503033421 | 41 | 205 | 0.9 | 0.9 | 0.00 | 0.31 | 0.31 | 77 | 1013.9 |
| 20260503032919 | 42 | 233 | 0.9 | 0.9 | 0.00 | 0.31 | 0.31 | 78 | 1013.6 |
| 20260503032417 | 42 | 220 | 0.9 | 0.9 | 0.00 | 0.31 | 0.31 | 77 | 1014.0 |
| 20260503031914 | 42 | 220 | 0.9 | 1.7 | 0.00 | 0.31 | 0.31 | 77 | 1013.6 |
| 20260503031412 | 42 | 234 | 1.7 | 1.7 | 0.00 | 0.31 | 0.31 | 77 | 1013.7 |
| 20260503030908 | 41 | 212 | 0.9 | 0.9 | 0.00 | 0.31 | 0.31 | 77 | 1013.8 |
| 20260503030405 | 41 | 214 | 0.0 | 0.0 | 0.00 | 0.31 | 0.31 | 78 | 1013.9 |
| 20260503025901 | 41 | 213 | 0.0 | 0.9 | 0.00 | 0.31 | 0.31 | 78 | 1013.7 |
| 20260503025359 | 41 | 214 | 0.0 | 0.0 | 0.00 | 0.31 | 0.31 | 78 | 1013.8 |
| 20260503024856 | 41 | 207 | 0.0 | 0.0 | 0.00 | 0.31 | 0.31 | 77 | 1014.0 |
| 20260503024353 | 41 | 207 | 0.0 | 0.0 | 0.00 | 0.31 | 0.31 | 78 | 1014.0 |
| 20260503023850 | 41 | 200 | 0.0 | 0.9 | 0.00 | 0.31 | 0.31 | 77 | 1014.0 |
| 20260503023347 | 42 | 209 | 0.0 | 0.9 | 0.00 | 0.31 | 0.31 | 78 | 1014.0 |
| 20260503022844 | 42 | 209 | 0.0 | 0.0 | 0.00 | 0.31 | 0.31 | 77 | 1014.0 |
| 20260503022344 | 42 | 209 | 0.0 | 0.9 | 0.00 | 0.31 | 0.31 | 76 | 1013.9 |
| 20260503021840 | 42 | 210 | 0.0 | 0.9 | 0.00 | 0.31 | 0.31 | 76 | 1014.2 |
| 20260503021337 | 42 | 213 | 0.0 | 0.9 | 0.00 | 0.31 | 0.31 | 76 | 1013.9 |
| 20260503020834 | 41 | 203 | 0.9 | 0.9 | 0.00 | 0.31 | 0.31 | 79 | 1013.7 |
| 20260503020332 | 41 | 217 | 0.0 | 0.0 | 0.00 | 0.31 | 0.31 | 79 | 1013.9 |
| 20260503015828 | 41 | 217 | 0.0 | 0.0 | 0.00 | 0.31 | 0.31 | 80 | 1014.1 |
| 20260503015325 | 41 | 217 | 0.0 | 0.0 | 0.00 | 0.31 | 0.31 | 82 | 1014.1 |
| 20260503014821 | 41 | 217 | 0.0 | 0.0 | 0.00 | 0.31 | 0.31 | 83 | 1013.9 |
| 20260503014319 | 41 | 217 | 0.0 | 0.0 | 0.00 | 0.31 | 0.31 | 82 | 1013.8 |
| 20260503013816 | 41 | 218 | 0.0 | 0.0 | 0.00 | 0.31 | 0.31 | 80 | 1013.9 |
| 20260503013313 | 41 | 218 | 0.0 | 0.0 | 0.00 | 0.31 | 0.31 | 79 | 1013.9 |
| 20260503012810 | 41 | 217 | 0.0 | 0.0 | 0.00 | 0.31 | 0.31 | 80 | 1013.9 |
| 20260503012308 | 41 | 218 | 0.0 | 0.0 | 0.00 | 0.31 | 0.31 | 79 | 1013.8 |
| 20260503011804 | 41 | 218 | 0.0 | 0.0 | 0.00 | 0.31 | 0.31 | 79 | 1013.8 |
| 20260503011301 | 41 | 217 | 0.0 | 0.0 | 0.00 | 0.31 | 0.31 | 79 | 1013.7 |
| 20260503010757 | 41 | 218 | 0.0 | 0.0 | 0.00 | 0.31 | 0.31 | 79 | 1013.7 |
| 20260503010255 | 42 | 218 | 0.0 | 0.0 | 0.00 | 0.31 | 0.31 | 78 | 1013.6 |
| 20260503005752 | 42 | 218 | 0.0 | 0.0 | 0.00 | 0.31 | 0.31 | 77 | 1013.4 |
| 20260503005249 | 42 | 218 | 0.0 | 0.0 | 0.00 | 0.31 | 0.31 | 76 | 1013.4 |
| 20260503004745 | 42 | 218 | 0.0 | 0.0 | 0.00 | 0.31 | 0.31 | 75 | 1013.4 |
| 20260503004243 | 42 | 218 | 0.0 | 0.0 | 0.00 | 0.31 | 0.31 | 73 | 1013.6 |
| 20260503003740 | 42 | 218 | 0.0 | 0.0 | 0.00 | 0.31 | 0.31 | 72 | 1013.4 |
| 20260503003237 | 42 | 218 | 0.0 | 0.0 | 0.00 | 0.31 | 0.31 | 73 | 1013.4 |
| 20260503002734 | 42 | 218 | 0.0 | 0.0 | 0.00 | 0.31 | 0.31 | 71 | 1013.5 |
| 20260503002231 | 42 | 218 | 0.0 | 0.0 | 0.00 | 0.31 | 0.31 | 70 | 1013.3 |
| 20260503001727 | 42 | 218 | 0.0 | 0.0 | 0.00 | 0.31 | 0.31 | 70 | 1013.2 |
| 20260503001223 | 43 | 218 | 0.0 | 0.0 | 0.00 | 0.31 | 0.31 | 72 | 1013.3 |
| 20260503000722 | 43 | 218 | 0.0 | 0.0 | 0.00 | 0.31 | 0.31 | 70 | 1013.1 |
| 20260503000219 | 44 | 219 | 0.0 | 0.0 | 0.00 | 0.31 | 0.31 | 67 | 1013.3 |
| 20260502235715 | 44 | 220 | 0.0 | 0.0 | 0.00 | 0.31 | 0.31 | 63 | 1013.1 |
| 20260502235213 | 44 | 225 | 0.0 | 0.0 | 0.00 | 0.31 | 0.31 | 63 | 1013.1 |
| 20260502234709 | 44 | 214 | 0.0 | 0.0 | 0.00 | 0.31 | 0.31 | 62 | 1013.7 |
| 20260502234207 | 44 | 43 | 1.7 | 2.6 | 0.00 | 0.31 | 0.31 | 62 | 1013.6 |
| 20260502233702 | 44 | 229 | 0.0 | 0.0 | 0.00 | 0.31 | 0.31 | 62 | 1013.6 |
| 20260502233200 | 44 | 223 | 0.0 | 0.0 | 0.00 | 0.31 | 0.31 | 62 | 1013.4 |
| 20260502232655 | 44 | 232 | 0.0 | 0.0 | 0.00 | 0.31 | 0.31 | 61 | 1013.5 |
| 20260502232153 | 44 | 242 | 0.9 | 0.9 | 0.00 | 0.31 | 0.31 | 61 | 1013.4 |
| 20260502231649 | 44 | 235 | 0.0 | 0.9 | 0.00 | 0.31 | 0.31 | 60 | 1013.5 |
| 20260502231147 | 44 | 235 | 0.0 | 0.0 | 0.00 | 0.31 | 0.31 | 62 | 1013.3 |
| 20260502230645 | 44 | 214 | 0.0 | 0.0 | 0.00 | 0.31 | 0.31 | 62 | 1013.4 |
| 20260502230144 | 44 | 219 | 0.0 | 0.9 | 0.00 | 0.31 | 0.31 | 64 | 1013.5 |
| 20260502225639 | 44 | 211 | 0.0 | 0.9 | 0.00 | 0.31 | 0.31 | 61 | 1013.3 |
| 20260502225136 | 44 | 240 | 0.0 | 0.9 | 0.00 | 0.31 | 0.31 | 61 | 1013.2 |
| 20260502224632 | 44 | 275 | 0.9 | 1.7 | 0.00 | 0.31 | 0.31 | 60 | 1013.1 |
| 20260502224129 | 44 | 31 | 1.7 | 1.7 | 0.00 | 0.31 | 0.31 | 59 | 1013.1 |
| 20260502223627 | 45 | 241 | 0.9 | 0.9 | 0.00 | 0.31 | 0.31 | 60 | 1013.1 |
| 20260502223125 | 44 | 225 | 0.0 | 0.9 | 0.00 | 0.31 | 0.31 | 59 | 1013.0 |
| 20260502222622 | 44 | 298 | 1.7 | 1.7 | 0.00 | 0.31 | 0.31 | 59 | 1013.1 |
| 20260502222119 | 45 | 249 | 0.9 | 0.9 | 0.00 | 0.31 | 0.31 | 60 | 1013.3 |
| 20260502221614 | 45 | 281 | 1.7 | 2.6 | 0.00 | 0.31 | 0.31 | 57 | 1013.9 |
| 20260502221112 | 44 | 25 | 1.7 | 1.7 | 0.00 | 0.31 | 0.31 | 57 | 1014.2 |
| 20260502220608 | 45 | 309 | 0.9 | 0.9 | 0.00 | 0.31 | 0.31 | 59 | 1014.4 |
| 20260502220104 | 45 | 269 | 0.9 | 0.9 | 0.00 | 0.31 | 0.31 | 57 | 1014.1 |
| 20260502215601 | 45 | 208 | 0.9 | 1.7 | 0.00 | 0.31 | 0.31 | 58 | 1014.2 |
| 20260502215058 | 45 | 48 | 1.7 | 1.7 | 0.00 | 0.31 | 0.31 | 58 | 1014.3 |
| 20260502214555 | 46 | 209 | 0.9 | 1.7 | 0.00 | 0.31 | 0.31 | 58 | 1014.1 |
| 20260502214053 | 45 | 356 | 2.6 | 2.6 | 0.00 | 0.31 | 0.31 | 59 | 1014.2 |
| 20260502213549 | 45 | 357 | 2.6 | 4.3 | 0.00 | 0.31 | 0.31 | 61 | 1014.2 |
| 20260502213047 | 45 | 231 | 0.0 | 0.0 | 0.00 | 0.31 | 0.31 | 60 | 1014.1 |
| 20260502212546 | 45 | 219 | 0.0 | 0.0 | 0.00 | 0.31 | 0.31 | 59 | 1014.0 |
| 20260502212043 | 45 | 253 | 0.9 | 0.9 | 0.00 | 0.31 | 0.31 | 62 | 1014.1 |